www.pogodaiklimat.ru

Погода и климат >> Архив погоды >> Россия >> Камчатский край >> Начики


АРХИВ ПОГОДЫ в Начиках

Время (UTC), дата Ветер
(напр.,м/с)
 
Видим.   Явления Облачность Т
(С)
Тd
(С)
f
(%)
Тe
(С)
Тes
(С)
Комфортность P
(гПа)
Po
(гПа)
Тmin
(С)
Tmax
(С)
R
(мм)
R24
(мм)
S
(см)
18 15.04 штиль 0 50 км 10/0
[Ci sp]
-9.4 -10.5 92 -10 -10 1022.2 981.3
21 15.04 С 1 50 км 10/3 600 м
[Sc Ac trans Cs]
-2.8 -7.5 70 -5 -3 1020.7 980.8 -9.7 145
00 16.04 В 3 50 км 10/6 600 м
[Sc As op]
+0.1 -5.4 66 -4 -3 1020.5 981.1
03 16.04 В 5 4000 м слаб. ливневой снег 9/8 600 м
[Cb cap Ac trans Ci fib]
+1.1 -5.4 62 -4 -4 1020.6 981.3
06 16.04 В 6-10
{10}
50 км {ливн. осадки} 10/8 600 м
[Sc diur, vesp Ac As]
+0.6 -4.8 67 -5 -5 1020.7 981.3
09 16.04 В 4
{10}
20 км {ливн. осадки} 10/8 600 м
[Sc diur, vesp Ac As]
-0.7 -4.9 73 -6 -6 1019.5 980.0 +1.5 0.1
12 16.04 В 6-11
{12}
4000 м слаб. ливневой снег {метель} 10/10 600 м
[Cb cap]
-1.2 -4.4 79 -8 -8 1018.5 978.9
15 16.04 В 6-10
{11}
4000 м слаб. ливневой снег {метель} 10/10 600 м
[Cb cap]
-0.8 -3.9 79 -8 -8 1016.6 977.2
18 16.04 В 1
{11}
4000 м слаб. ливневой снег {метель} 10/10 600 м
[Cb cap]
-0.1 -3.7 77 -2 -2 1015.2 975.9
21 16.04 СВ 7-14
{14}
1000 м слаб. ливневой снег {метель} 10/10 600 м
[Cb cap]
-0.3 -3.2 81 -7 -7 1016.7 977.3 -1.5 0.4 146
00 17.04 В 8-12
{15}
1000 м слаб. ливневой снег {метель} 10/10 600 м
[Cb cap]
+0.4 -3.2 77 -7 -7 1014.8 975.6
03 17.04 В 5
{13}
4000 м слаб. ливневой снег {метель} 10/10 600 м
[Cb cap]
+1.1 -3.0 74 -4 -4 1015.1 976.0
06 17.04 СВ 7-11
{12}
4000 м слаб. ливневой снег {метель} 10/10 600 м
[Cb cap]
+0.9 -4.3 68 -6 -6 1015.1 976.0
09 17.04 В 4
{11}
20 км слаб. ливневой снег {метель} 9/9 600 м
[Cb cap]
0.0 -4.6 71 -5 -5 1016.6 977.3 +1.3 0.3
12 17.04 СВ 4 4000 м слаб. ливневой снег {метель} 9/9 600 м
[Cb cap]
-0.3 -5.6 67 -5 -5 1017.3 977.9
15 17.04 СВ 4 4000 м слаб. ливневой снег {метель} 8/8 600 м
[Cb cap]
-0.4 -6.3 64 -6 -6 1018.0 978.6
18 17.04 СВ 5 20 км {ливн. осадки} 10/10 600 м
[Sc diur, vesp]
-0.6 -6.0 67 -6 -6 1019.7 980.1
21 17.04 В 4 50 км 9/9 600 м
[Sc]
-0.4 -6.8 62 -5 -5 1022.3 982.7 -0.7 0.0 147
00 18.04 В 3 50 км 8/4 1000 м
[Sc Ci fib]
+1.9 -6.9 52 -2 +1 1022.0 982.7
03 18.04 В 3-10
{10}
50 км 8/0
[Ac trans Ci fib]
+2.9 -6.5 50 -0 +2 1021.8 982.7
06 18.04 ЮВ 3
{10}
50 км 3/0
[Ci fib]
+2.3 -6.0 54 -1 +1 1023.3 984.0
09 18.04 В 3 50 км ясно -1.0 -6.5 66 -5 -5 1025.1 985.3 +4.4
12 18.04 Ю 4 50 км ясно -1.7 -6.3 71 -7 -7 1025.2 985.3
15 18.04 ЮВ 4 50 км 3/0
[Ci sp]
-2.8 -5.6 81 -9 -9 1025.4 985.3
18 18.04 Ю 1 50 км 3/0
[Ci sp]
-4.3 -6.8 83 -7 -7 1025.4 985.1
21 18.04 В 4 50 км 3/3 1000 м
[Sc]
-1.0 -6.1 68 -6 -5 1025.4 985.5 -6.8 143
00 19.04 В 4 50 км ясно +1.3 -5.8 59 -3 +4 1026.2 986.7
03 19.04 В 5
{10}
50 км ясно +2.7 -5.4 55 -2 +4 1026.0 986.7
06 19.04 ЮВ 4 50 км ясно +2.8 -5.8 53 -1 +1 1026.0 986.7
09 19.04 Ю 4 50 км 3/0
[Ci sp]
+0.1 -5.3 67 -5 -5 1026.4 986.7 +3.4
12 19.04 ЮВ 3 50 км 6/0
[Ci sp]
-1.9 -5.4 77 -7 -7 1026.7 986.7
15 19.04 В 2 50 км 6/3 1000 м
[Sc Ci sp]
-3.1 -5.7 82 -7 -7 1028.2 988.0
18 19.04 СВ 1 50 км 8/4 600 м
[Sc Ci sp]
-4.4 -6.5 85 -7 -7 1028.4 988.0
21 19.04 В 3 50 км 9/8 600 м
[Sc Ac trans]
-1.7 -5.9 73 -6 -6 1027.9 987.9 -6.0 139
00 20.04 Ю 2 50 км 9/6 600 м
[Sc Ac trans Ci fib]
+0.2 -6.8 59 -3 0 1027.3 987.6
03 20.04 Ю 2 50 км 8/0
[Ac trans Ci fib]
+2.7 -5.9 53 0 +4 1027.4 988.0
06 20.04 Ю 2 50 км 8/0
[Ac trans Ci sp]
+3.3 -5.9 51 +1 +2 1027.3 988.0
09 20.04 ЮВ 1 50 км 3/0
[Ci fib]
-0.8 -6.2 67 -3 -3 1027.9 988.0 +3.5
12 20.04 В 1 50 км ясно -4.6 -6.4 87 -7 -7 1028.5 988.0
15 20.04 СВ 1 50 км туман местами 3/3 300 м
[St]
-7.3 -8.2 93 -10 -10 1027.2 986.4
18 20.04 штиль 0 20 км 10/10 600 м
[Sc]
-5.1 -6.3 91 -6 -6 1027.2 986.7
21 20.04 ЮЗ 2 50 км 10/10 600 м
[Sc]
-1.0 -6.5 66 -4 -4 1025.8 986.0 -8.0 137
00 21.04 З 1 50 км 10/10 600 м
[Sc]
+0.9 -7.4 54 -0 -0 1024.8 985.3
03 21.04 Ю 3 50 км 8/8 1000 м
[Sc]
+2.5 -6.9 50 -1 +2 1024.6 985.3
06 21.04 ЮЗ 2 50 км 4/3 1000 м
[Sc Ci fib]
+2.7 -7.2 48 0 +3 1023.2 984.0
09 21.04 штиль 0 50 км 6/3 1000 м
[Sc Ac trans Ci fib]
-1.8 -6.9 68 -3 -3 1025.2 985.3 +3.5
12 21.04 штиль 0 50 км 10/8 600 м
[Sc Ci sp]
-2.7 -5.9 79 -4 -4 1024.4 984.3
15 21.04 штиль 0 50 км 10/8 600 м
[Sc Ci sp]
-2.4 -5.5 79 -3 -3 1025.3 985.3
18 21.04 В 1 20 км 10/4 600 м
[Sc As trans]
-1.9 -5.2 78 -4 -4 1023.9 984.0
21 21.04 штиль 0 50 км {ливн. осадки} 10/10 600 м
[Sc]
-0.3 -6.3 64 -1 -1 1022.8 983.2 -2.8 0.0 131
00 22.04 В 1 50 км {ливн. осадки} 10/10 1000 м
[Sc]
+1.2 -6.4 57 0 0 1022.3 982.9
03 22.04 Ю 1 50 км 9 баллов +4.5 -6.4 45 +4 +5 1021.6 982.7
06 22.04 ЮВ 1 50 км 10 баллов +3.5 -5.9 50 +3 +3 1020.3 981.3
09 22.04 ЮВ 2 50 км 10/10 1000 м
[Sc]
+1.9 -4.6 62 -1 -1 1020.5 981.3 +4.8
12 22.04 ЮВ 3 50 км 10/10 1000 м
[Sc]
+0.8 -3.5 73 -3 -3 1019.4 980.1
15 22.04 В 3 50 км 10 баллов +0.2 -3.9 74 -4 -4 1019.4 980.0

 

Местоположение метеостанции Начики (Камчатский край, Россия): широта 53.12 долгота 157.70 высота над уровнем моря 317 м.

В архиве по умолчанию представлена погода в Начиках за последнюю неделю. Архивные данные за месяц целиком и за предыдущие месяцы, начиная с января 2011 года, Вы можете получить, выбрав интересующий диапазон дат из раскрывающегося списка и нажав кнопку "Ввод!".


*Определитесь, кто Вы:
робот инопланетянин человек

Внимание! Время в таблицах - всемирное. Для получения местного времени необходимо прибавить поправку, которая равна 12 ч.

Смотрите также архив погоды в соседних городах и на ближайших метеорологических станциях:

Погода в Сосновке (Камчатский край, Россия) (40 км)
Погода в Петропавловск-Камч. 2 (Камчатский край, Россия) (54 км)
Погода в Петропавловск-Камчатском (Камчатский край, Россия) (66 км)
Погода в Петропавловском Маяке (Камчатский край, Россия) (72 км)
Погода в Большерецке (Камчатский край, Россия) (99 км)
Погода в Пущино (Камчатский край, Россия) (120 км)
Погода в Водопадной (Камчатский край, Россия) (146 км)
Погода в Соболево (Камчатский край, Россия) (177 км)
Погода в Мильково (Камчатский край, Россия) (181 км)
Погода в Семячике (Камчатский край, Россия) (183 км)

Пояснения к столбцам:

Ветер - указаны скорость ветра в м/с - средняя за 10 мин, порывы в срок и между сроками (в фигурных скобках) и направление, откуда дует ветер: С - северный, СВ - северо-восточный, В - восточный, ЮВ - юго-восточный, Ю - южный, ЮЗ - юго-западный, З - западный, СЗ - северо-западный.
Видимость - горизонтальная дальность видимости в метрах или километрах. При видимости от 1 до 10 км при отсутствии осадков обычно наблюдается дымка, при ухудшении видимости до 1 км и менее - туман. В сухую погоду видимость может ухудшаться дымом, пылью или мглою.
Явления - указаны атмосферные явления, наблюдавшиеся в срок или в последний час перед сроком; фигурными скобками обозначены явления, наблюдавшиеся между сроками (за 1-3 часа до срока); квадратными скобками обозначены град или гололедные отложения с указанием их диаметра в мм.
Облачность - указаны через наклонную черту общая и нижняя облачность в баллах и высота нижней границы облаков в метрах; квадратными скобками обозначены формы облаков: Ci - перистые, Cs - перисто-слоистые, Cc - перисто-кучевые, Ac - высококучевые, As - высокослоистые, Sc - слоисто-кучевые, Ns - слоисто-дождевые, Cu - кучевые, Cb - кучево-дождевые. Подробнее классификацию облаков см. в Атласе облаков (PDF).
T - Температура воздуха - температура, измеренная на высоте 2 м над землей.
Td - Температура точки росы - температура, при понижении до которой содержащийся в воздухе водяной пар достигнет насыщения.
f - Относительная влажность воздуха - влажноcть воздуха, измеренная на высоте 2 м над землей.
Te - Эффективная температура - температура, которую ощущает одетый по сезону человек в тени. Характеристика душности погоды. При расчете учитывается влияние влажности воздуха и скорости ветра на теплоощущения человека.
Tes - Эффективная температура на солнце - температура, которую ощущает человек, с поправкой на солнечный нагрев. Характеристика знойности погоды. Зависит от высоты солнца над горизонтом, облачности и скорости ветра. Ночью, в пасмурную погоду, а также при ветре 12 м/с и более поправка равна нулю.
P - Атмосферное давление - приведенное к уровню моря атмосферное давление.
Po - Атмосферное давление - измеренное на уровне метеостанции атмосферное давление.
Tmin - Минимальная температура - минимум температуры воздуха на высоте 2 м над землей.
Tmax - Максимальная температура - максимум температуры воздуха на высоте 2 м над землей.
R - Количество осадков - Количество выпавших осадков за период времени, мм. При наведении курсора мыши на число - период времени, за который выпало указанное количество осадков.
R24 - Количество осадков - Количество выпавших осадков за 24 часа, мм.
S - Снежный покров - Высота снежного покрова, см. При наведении курсора мыши на число - состояние снежного покрова и степень покрытия местности в баллах.